Starlink 4442

operational
NORAD ID: 53480 Int'l Des: 2022-099 Owner: SPXS Country: US Constellation: starlink
LEOCIRCULARRETROGRADESSO

Über Starlink 4442

Beschreibung wird geladen...

Live-Position

3D-Globus wird geladen...

Nächste Überflüge

Höhenverlauf

Altitude vs Time

uPlot chart will show altitude changes over time

Zweizeiliger Elementsatz

1 53480U 22099R 25306.34356044 .00001019 00000-0 74799-4 0 9998
2 53480 97.6045 65.6779 0001172 91.6520 268.4841 15.05647963176886
Epoch: 2. Nov. 2025 • Age: 25 hours

Aktueller Status

Höhe 572.9 km
Geschwindigkeit 7.57 km/s
Subsatellitenpunkt -58.68°S, 106.11°W
Startdatum 12. Aug. 2022
Alter 3.2 years
Typ internet

Technische Details

Klassifizierung Payload
Masse 300.00 kg
Trockenmasse 275.00 kg
Gesamtmasse 300.00 kg
Länge 0.20 m
Durchmesser 2.80 m
Spannweite 9.00 m
Form Box + pan
Hersteller SPXS
Bus-Typ Starlink
Phasenstatus In Orbit
Besitzer/Staat SPXS/US

Große Konstellationen

Loading constellations...